Regional Weather Roundup
Issued by NWS Upton, NY

Current Version | Previous Version | Graphics & Text | Print | Product List | Glossary Off
Versions: 1 2 3 4 5 6 7 8 9 10 11 12 13 14 15 16 17 18 19 20 21 22 23 24 25 26 27 28 29 30 31 32 33 34 35 36 37 38 39 40 41 42 43 44 45 46 47 48 49 50

000
ASUS41 KOKX 242005
RWROKX

REGIONAL WEATHER ROUNDUP
NATIONAL WEATHER SERVICE NEW YORK NY
400 PM EDT THU JUL 24 2014

NOTE: "FAIR" INDICATES FEW OR NO CLOUDS BELOW 12,000 FEET WITH NO
SIGNIFICANT WEATHER AND/OR OBSTRUCTIONS TO VISIBILITY.

NYZ071-072-176-178-NJZ106-104-242100-
NEW YORK CITY METRO AREA


CITY           SKY/WX    TMP DP  RH WIND       PRES   REMARKS
CENTRAL PARK   MOSUNNY   79  59  50 E8        29.87F
LAGUARDIA APRT NOT AVBL
KENNEDY INTL   PTSUNNY   82  57  42 N14       29.85F
NEWARK/LIBERTY PTSUNNY   80  57  45 VRB3      29.84F
BRNX BOT. GARD   N/A     79  52  38 NW7       29.87F
TETERBORO      MOSUNNY   83  57  41 NW5       29.84S
$$

NYZ177-179-078>081-242100-
LONG ISLAND NEW YORK

CITY           SKY/WX    TMP DP  RH WIND       PRES   REMARKS
FARMINGDALE    PTSUNNY   78  58  49 VRB7      29.85S
ISLIP          CLOUDY    80  59  48 N9        29.82F
SHIRLEY        CLOUDY    80  60  50 N9        29.84F
WESTHAMPTON    CLOUDY    80  60  50 N8        29.84F
MONTAUK POINT    N/A     77  65  66 VRB3      29.83F
$$

NYZ052-065-067-242100-
HUDSON VALLEY

CITY           SKY/WX    TMP DP  RH WIND       PRES   REMARKS
WHITE PLAINS   MOSUNNY   78  56  46 N10       29.86S
NEWBURGH       PTSUNNY   75  59  57 NE12      29.88F
MONTGOMERY     PTSUNNY   79  59  50 NE7       29.87S
POUGHKEEPSIE   MOSUNNY   78  58  49 NE13      29.86S
ALBANY         PTSUNNY   77  57  50 NE6       29.88F
$$

NJZ001-105-106-008-010-013-015-019>022-104-242100-
NEW JERSEY

CITY           SKY/WX    TMP DP  RH WIND       PRES   REMARKS
NEWARK/LIBERTY PTSUNNY   80  57  45 VRB3      29.84F
TETERBORO      MOSUNNY   83  57  41 NW5       29.84S
CALDWELL       PTSUNNY   81  57  43 N5        29.86S
MORRISTOWN     PTSUNNY   79  57  47 N6        29.86S
SOMERVILLE     CLOUDY    80  56  43 N3        29.84F
LINDEN         MOCLDY    82  58  45 NE5       29.86F
SUSSEX         SUNNY     81  55  40 N7        29.87S
ANDOVER          N/A     79  56  45 VRB5      29.88F
TRENTON        MOSUNNY   80  57  45 VRB7      29.86S
MILLVILLE      PTSUNNY   81  61  50 N8        29.87S
ATLANTIC CITY  PTSUNNY   80  61  52 N8        29.85S
WRIGHTSTOWN    MOSUNNY   80  60  51 NW10      29.84S
TOMS RIVER     PTSUNNY   79  61  53 N6        29.85S
BELMAR         PTSUNNY   79  63  57 NE9       29.85F
$$

PAZ047>061-062-071-242100-
EASTERN PENNSYLVANIA

CITY           SKY/WX    TMP DP  RH WIND       PRES   REMARKS
PHILADELPHIA   PTSUNNY   83  55  38 NW12      29.86F
ALLENTOWN      MOSUNNY   81  54  39 N9        29.88F
SCRANTON       MOSUNNY   77  50  38 N10G20    29.93S
$$

CTZ002-004>006-009-010-012-RIZ004-006-007-MAZ004-011-015-242100-
SOUTHERN NEW ENGLAND
 IN CT

CITY           SKY/WX    TMP DP  RH WIND       PRES   REMARKS
BRADLEY INTL   PTSUNNY   82  58  43 N8        29.82F
HARTFORD       CLOUDY    81  56  42 N9        29.82F
DANBURY        MOSUNNY   77  55  46 N12       29.87F
WTRBRY/OXFORD  MOSUNNY   73  57  56 NW8       29.88F
BRIDGEPORT     CLOUDY    80  60  50 N10       29.83F
MERIDEN        CLOUDY    81  60  48 N10       29.83S
NEW HAVEN      CLOUDY    81  61  50 VRB6      29.82F
CHESTER        FAIR      79  59  50 N7        29.84F
GROTON         CLOUDY    79  64  60 N7        29.81S
WILLIMANTIC    CLOUDY    80  59  48 NW8       29.83S

 IN RI

CITY           SKY/WX    TMP DP  RH WIND       PRES   REMARKS
PROVIDENCE     CLOUDY    77  65  66 NE8       29.83S
BLOCK ISLAND   CLOUDY    72  64  78 E8        29.83F
WESTERLY       CLOUDY    74  67  78 SE10      29.83S

 IN MA

CITY           SKY/WX    TMP DP  RH WIND       PRES   REMARKS
BOSTON         CLOUDY    69  62  78 E8        29.84S
WORCESTER      CLOUDY    76  58  53 N9        29.86S
WESTFIELD      PTSUNNY   81  55  40 VRB7      29.84S
PROVINCETOWN   PTSUNNY   68  64  88 N10       29.83S
NANTUCKET      CLOUDY    71  64  78 N14       29.81S
$$

ANZ330-335-338-340-345-350-353-355-242100-
COASTAL MARINE OBSERVATIONS


STATION/POSITION TIME  SKY/WX   TEMP    WIND        PRES    VSBY  WAVE
                                AIR SEA DIR/SP/G                  HT/PER
                 (UTC)          (F)     (DEG/KT/KT) (MB)    (MI)  (FT/S)
NY HARB ENTRANCE NOT AVBL
4S FIRE IS       NOT AVBL
23SW MTP         2000            73 72              1009.3          2/ 8
HUDSON CANYON    2000            72 74  350/ 12/ 14 1009.8          3/ 7
EXECUTION ROCKS  2000            77 73   40/  8/ 14   N/A
WESTERN LI SOUND 2000            76      10/  8/ 12   N/A           1
CENTRAL LI SOUND 1900            75 73  260/  6/  6   N/A           1
EASTERN LI SOUND 1900            72 67  250/  6/  8   N/A
ROBBINS REEF     2000            76      50/  8/  9   N/A
$$


>>>>>>>>>>>>>>>>>>>>>>>>>>>> KEY <<<<<<<<<<<<<<<<<<<<<<<<<<<
>                                                          <
>     SKY/WX - SKY CONDITION/PRESENT WEATHER               <
>     TMP    - TEMPERATURE IN FAHRENHEIT                   <
>     DP     - DEWPOINT IN FAHRENHEIT                      <
>     RH     - RELATIVE HUMIDITY IN PERCENT                <
>     WIND   - DIRECTION AND SPEED IN MPH                  <
>     PRES   - MEAN SEA LEVEL PRESSURE IN INCHES OF HG     <
>     WCI    - WIND CHILL INDEX                            <
>     VSB    - VISIBILITY IN MILES                         <
>     HX     - HEAT INDEX                                  <
>     TC     - TEMPERATURE IN CELSIUS                      <
>     VRB    - VARIABLE WIND DIRECTION                     <
>                                                          <
>>>>>>>>>>>>>>>>>>>>>>>>>>>> KEY <<<<<<<<<<<<<<<<<<<<<<<<<<<





USA.gov is the U.S. government's official web portal to all federal, state and local government web resources and services.